AFL297 WADD-UUEE

Flight info

Callsign AFL297
Flight time N/A
Altitude 34000
Route KOLTA G464 PNK N875 BOBOB M761 VPK M751 VKB A334 HTY W14 PUT L515 OBMOG M770 LALAT/N0500F360 M770 KAKID M875 BUTOP/N0497F380 M875 JHANG A466 SITAX M875 AMDAR/K0904F380 M875 MILSO/K0911F400 M161 DENUD T784 LARNO T291 URIDU L158 DIMGI DIMGI3F
Aircraft A359/H-SDE2E3GHIJ1J3J4J5LM1ORWXY/LB1D1

Departure

Time 2026-05-07 05:52
Airport Denpasar I Gusti Ngurah Rai International Airport (WADD)

Arrival

Time N/A
Airport Sheremetyevo International Airport (UUEE)
Time Latitude Longitude Altitude Speed Heading
2026-05-07 05:27 -8.74557 115.16802 38 ft 0 kts 358°
2026-05-07 05:42 -8.74558 115.16802 39 ft 0 kts 358°
2026-05-07 05:43 -8.74578 115.16803 37 ft 4 kts 358°
2026-05-07 05:43 -8.74604 115.16805 35 ft 4 kts 358°
2026-05-07 05:43 -8.74631 115.16806 37 ft 3 kts 358°
2026-05-07 05:43 -8.74654 115.16808 38 ft 4 kts 338°
2026-05-07 05:44 -8.74672 115.16823 38 ft 4 kts 285°
2026-05-07 05:44 -8.74674 115.16849 38 ft 3 kts 267°
2026-05-07 05:44 -8.74676 115.16852 38 ft 0 kts 267°
2026-05-07 05:44 -8.74679 115.16852 38 ft 0 kts 267°
2026-05-07 05:45 -8.74680 115.16852 38 ft 0 kts 267°
2026-05-07 05:47 -8.74680 115.16839 37 ft 7 kts 269°
2026-05-07 05:47 -8.74679 115.16794 38 ft 11 kts 273°
2026-05-07 05:47 -8.74680 115.16703 38 ft 16 kts 268°
2026-05-07 05:48 -8.74685 115.16560 38 ft 24 kts 267°
2026-05-07 05:48 -8.74693 115.16391 39 ft 21 kts 267°
2026-05-07 05:48 -8.74699 115.16242 39 ft 21 kts 268°
2026-05-07 05:48 -8.74705 115.16094 39 ft 21 kts 268°
2026-05-07 05:49 -8.74711 115.15949 39 ft 21 kts 268°
2026-05-07 05:49 -8.74717 115.15802 39 ft 22 kts 268°
2026-05-07 05:49 -8.74723 115.15636 38 ft 21 kts 268°
2026-05-07 05:49 -8.74729 115.15505 38 ft 19 kts 268°
2026-05-07 05:50 -8.74763 115.15405 38 ft 9 kts 217°
2026-05-07 05:50 -8.74786 115.15396 37 ft 0 kts 189°
2026-05-07 05:50 -8.74805 115.15394 36 ft 9 kts 184°
2026-05-07 05:51 -8.74879 115.15402 34 ft 6 kts 152°
2026-05-07 05:51 -8.74892 115.15430 35 ft 4 kts 104°
2026-05-07 05:51 -8.74895 115.15471 35 ft 11 kts 89°
2026-05-07 05:51 -8.74888 115.15638 34 ft 49 kts 87°
2026-05-07 05:52 -8.74864 115.16208 34 ft 112 kts 88°
2026-05-07 05:52 -8.74826 115.17192 35 ft 167 kts 89°
2026-05-07 05:52 -8.74788 115.18421 634 ft 172 kts 91°
2026-05-07 05:52 -8.74756 115.19590 1576 ft 162 kts 91°
2026-05-07 05:53 -8.74746 115.20675 2282 ft 144 kts 92°
2026-05-07 05:53 -8.74730 115.21725 2430 ft 154 kts 87°
2026-05-07 05:53 -8.74655 115.22826 2690 ft 159 kts 86°
2026-05-07 05:53 -8.74583 115.23966 2902 ft 165 kts 88°
2026-05-07 05:54 -8.74521 115.25131 3153 ft 169 kts 88°
2026-05-07 05:54 -8.74462 115.26348 3311 ft 178 kts 88°
2026-05-07 05:54 -8.74405 115.27639 3448 ft 190 kts 88°
2026-05-07 05:54 -8.74347 115.29019 3605 ft 203 kts 88°
2026-05-07 05:55 -8.74285 115.30496 3712 ft 218 kts 88°
2026-05-07 05:55 -8.74221 115.32073 3879 ft 231 kts 88°
2026-05-07 05:55 -8.74151 115.33736 4054 ft 244 kts 88°
2026-05-07 05:55 -8.74079 115.35491 4254 ft 256 kts 88°
2026-05-07 05:56 -8.74005 115.37312 4632 ft 261 kts 88°
2026-05-07 05:56 -8.73930 115.39146 5094 ft 262 kts 87°
2026-05-07 05:56 -8.73854 115.41003 5505 ft 266 kts 87°
2026-05-07 05:56 -8.73777 115.42886 5925 ft 270 kts 87°
2026-05-07 05:57 -8.73699 115.44788 6394 ft 271 kts 87°
2026-05-07 05:57 -8.73621 115.46691 6935 ft 271 kts 87°
2026-05-07 05:57 -8.73541 115.48604 7379 ft 275 kts 86°
2026-05-07 05:57 -8.73236 115.50518 7833 ft 277 kts 70°
2026-05-07 05:58 -8.72257 115.52180 8347 ft 277 kts 49°
2026-05-07 05:58 -8.70915 115.53594 8783 ft 281 kts 45°
2026-05-07 05:58 -8.69510 115.54978 8953 ft 282 kts 45°
2026-05-07 05:58 -8.68102 115.56365 8971 ft 283 kts 45°
2026-05-07 05:59 -8.66697 115.57758 8962 ft 284 kts 45°
2026-05-07 05:59 -8.65293 115.59156 8960 ft 283 kts 45°
2026-05-07 05:59 -8.63893 115.60557 8973 ft 284 kts 46°
2026-05-07 05:59 -8.62490 115.61960 8967 ft 283 kts 45°
2026-05-07 06:00 -8.61092 115.63360 8975 ft 283 kts 46°
2026-05-07 06:00 -8.59711 115.64746 8965 ft 284 kts 45°
2026-05-07 06:00 -8.58292 115.66167 8959 ft 283 kts 45°
2026-05-07 06:00 -8.56893 115.67567 8971 ft 284 kts 45°
2026-05-07 06:01 -8.55345 115.68799 8963 ft 285 kts 29°
2026-05-07 06:01 -8.53450 115.69328 8971 ft 288 kts
2026-05-07 06:01 -8.51439 115.69189 9236 ft 292 kts 354°
2026-05-07 06:01 -8.49426 115.68926 9774 ft 292 kts 353°
2026-05-07 06:02 -8.47453 115.68392 10153 ft 299 kts 337°
2026-05-07 06:02 -8.45729 115.67156 10326 ft 313 kts 312°
2026-05-07 06:02 -8.44617 115.65222 10493 ft 327 kts 288°
2026-05-07 06:02 -8.44399 115.62905 10702 ft 339 kts 262°
2026-05-07 06:03 -8.44698 115.60512 10925 ft 349 kts 265°
2026-05-07 06:03 -8.44844 115.58031 11126 ft 359 kts 268°
2026-05-07 06:03 -8.44943 115.55484 11324 ft 368 kts 268°
2026-05-07 06:03 -8.45030 115.52903 11512 ft 377 kts 268°
2026-05-07 06:04 -8.45116 115.50228 11702 ft 385 kts 268°
2026-05-07 06:04 -8.45203 115.47502 11872 ft 392 kts 268°
2026-05-07 06:04 -8.45290 115.44724 12055 ft 399 kts 268°
2026-05-07 06:04 -8.45377 115.41912 12333 ft 402 kts 268°
2026-05-07 06:05 -8.45464 115.39083 12656 ft 404 kts 268°
2026-05-07 06:05 -8.45551 115.36244 12977 ft 405 kts 268°
2026-05-07 06:05 -8.45638 115.33393 13290 ft 407 kts 268°
2026-05-07 06:05 -8.45725 115.30535 13651 ft 407 kts 268°
2026-05-07 06:06 -8.45813 115.27678 13981 ft 407 kts 268°
2026-05-07 06:06 -8.45907 115.24814 14203 ft 410 kts 268°
2026-05-07 06:06 -8.46001 115.21928 14433 ft 413 kts 268°
2026-05-07 06:06 -8.46095 115.19024 14717 ft 414 kts 268°
2026-05-07 06:07 -8.46189 115.16116 15008 ft 414 kts 268°
2026-05-07 06:07 -8.46282 115.13205 15265 ft 416 kts 268°
2026-05-07 06:07 -8.46377 115.10274 15486 ft 418 kts 268°
2026-05-07 06:07 -8.46471 115.07331 15708 ft 421 kts 268°
2026-05-07 06:08 -8.46550 115.04381 15989 ft 421 kts 270°
2026-05-07 06:08 -8.46213 115.01447 16253 ft 422 kts 284°
2026-05-07 06:08 -8.45068 114.98724 16442 ft 425 kts 302°
2026-05-07 06:08 -8.43122 114.96474 16636 ft 428 kts 320°
2026-05-07 06:09 -8.40671 114.94773 16897 ft 429 kts 328°
2026-05-07 06:09 -8.38110 114.93216 17114 ft 432 kts 329°
2026-05-07 06:09 -8.35523 114.91656 17359 ft 433 kts 328°
2026-05-07 06:09 -8.32928 114.90103 17615 ft 434 kts 329°
2026-05-07 06:10 -8.30317 114.88569 17853 ft 435 kts 329°
2026-05-07 06:10 -8.27695 114.87026 18065 ft 437 kts 329°
2026-05-07 06:10 -8.25063 114.85473 18275 ft 439 kts 329°
2026-05-07 06:10 -8.22425 114.83912 18448 ft 441 kts 329°
2026-05-07 06:11 -8.19775 114.82343 18639 ft 442 kts 329°
2026-05-07 06:11 -8.17121 114.80771 18828 ft 443 kts 329°
2026-05-07 06:11 -8.14455 114.79191 19032 ft 445 kts 329°
2026-05-07 06:11 -8.11787 114.77610 19201 ft 446 kts 329°
2026-05-07 06:12 -8.09106 114.76021 19403 ft 447 kts 329°
2026-05-07 06:12 -8.06421 114.74429 19577 ft 448 kts 329°
2026-05-07 06:12 -8.03726 114.72833 19762 ft 450 kts 329°
2026-05-07 06:12 -8.01026 114.71233 19950 ft 451 kts 329°
2026-05-07 06:13 -7.98320 114.69630 20126 ft 452 kts 329°
2026-05-07 06:13 -7.95641 114.68043 20312 ft 453 kts 329°
2026-05-07 06:13 -7.92916 114.66430 20484 ft 454 kts 329°
2026-05-07 06:13 -7.90190 114.64816 20688 ft 455 kts 329°
2026-05-07 06:14 -7.87426 114.63241 20875 ft 457 kts 331°
2026-05-07 06:14 -7.84617 114.61732 21058 ft 458 kts 331°
2026-05-07 06:14 -7.81798 114.60222 21256 ft 460 kts 331°
2026-05-07 06:14 -7.78973 114.58701 21426 ft 461 kts 331°
2026-05-07 06:15 -7.76143 114.57172 21641 ft 462 kts 331°
2026-05-07 06:15 -7.73304 114.55635 21824 ft 463 kts 331°
2026-05-07 06:15 -7.70459 114.54093 22013 ft 465 kts 331°
2026-05-07 06:15 -7.67608 114.52547 22186 ft 466 kts 331°
2026-05-07 06:16 -7.64745 114.50994 22404 ft 468 kts 331°
2026-05-07 06:16 -7.61877 114.49444 22581 ft 469 kts 331°
2026-05-07 06:16 -7.58993 114.47880 22773 ft 471 kts 331°
2026-05-07 06:16 -7.56109 114.46314 22971 ft 472 kts 330°
2026-05-07 06:17 -7.53222 114.44746 23178 ft 472 kts 331°
2026-05-07 06:17 -7.50321 114.43172 23344 ft 475 kts 331°
2026-05-07 06:17 -7.47407 114.41593 23508 ft 476 kts 330°
2026-05-07 06:17 -7.44488 114.40010 23665 ft 477 kts 330°
2026-05-07 06:18 -7.41608 114.38354 23807 ft 479 kts 328°
2026-05-07 06:18 -7.38727 114.36643 23951 ft 480 kts 329°
2026-05-07 06:18 -7.35844 114.34936 24113 ft 482 kts 328°
2026-05-07 06:18 -7.32945 114.33229 24282 ft 483 kts 329°
2026-05-07 06:19 -7.30037 114.31522 24426 ft 485 kts 329°
2026-05-07 06:19 -7.27117 114.29813 24609 ft 486 kts 329°
2026-05-07 06:19 -7.24186 114.28099 24704 ft 489 kts 328°
2026-05-07 06:19 -7.21235 114.26373 24871 ft 491 kts 328°
2026-05-07 06:20 -7.18281 114.24647 25059 ft 492 kts 329°
2026-05-07 06:20 -7.15313 114.22914 25214 ft 494 kts 329°
2026-05-07 06:20 -7.12335 114.21175 25356 ft 496 kts 329°
2026-05-07 06:20 -7.09348 114.19430 25572 ft 497 kts 329°
2026-05-07 06:21 -7.06354 114.17683 25751 ft 498 kts 329°
2026-05-07 06:21 -7.03348 114.15929 25908 ft 501 kts 328°
2026-05-07 06:21 -7.00331 114.14168 26105 ft 502 kts 329°
2026-05-07 06:21 -6.97305 114.12403 26333 ft 503 kts 328°
2026-05-07 06:22 -6.94274 114.10635 26522 ft 505 kts 328°
2026-05-07 06:22 -6.88157 114.07067 26860 ft 509 kts 328°
2026-05-07 06:22 -6.85087 114.05277 27052 ft 511 kts 329°
2026-05-07 06:23 -6.82042 114.03502 27207 ft 514 kts 328°
2026-05-07 06:23 -6.78946 114.01697 27412 ft 515 kts 328°
2026-05-07 06:23 -6.75842 113.99888 27695 ft 515 kts 329°
2026-05-07 06:23 -6.72736 113.98078 27839 ft 518 kts 328°
2026-05-07 06:24 -6.69607 113.96255 27988 ft 520 kts 329°
2026-05-07 06:24 -6.66471 113.94428 28208 ft 521 kts 329°
2026-05-07 06:24 -6.63333 113.92601 28412 ft 522 kts 329°
2026-05-07 06:24 -6.60180 113.90765 28518 ft 526 kts 328°
2026-05-07 06:25 -6.57015 113.88922 28760 ft 525 kts 329°
2026-05-07 06:25 -6.53859 113.87085 29109 ft 523 kts 328°
2026-05-07 06:25 -6.50709 113.85252 29342 ft 523 kts 328°
2026-05-07 06:25 -6.47552 113.83414 29519 ft 524 kts 329°
2026-05-07 06:26 -6.44398 113.81583 29838 ft 522 kts 329°
2026-05-07 06:26 -6.41249 113.79768 30068 ft 522 kts 329°
2026-05-07 06:26 -6.38095 113.77956 30236 ft 522 kts 329°
2026-05-07 06:26 -6.34939 113.76146 30448 ft 521 kts 329°
2026-05-07 06:27 -6.31797 113.74343 30746 ft 519 kts 329°
2026-05-07 06:27 -6.28666 113.72545 30941 ft 518 kts 329°
2026-05-07 06:27 -6.25532 113.70746 31107 ft 519 kts 328°
2026-05-07 06:27 -6.22396 113.68944 31264 ft 519 kts 329°
2026-05-07 06:28 -6.19265 113.67145 31445 ft 519 kts 329°
2026-05-07 06:28 -6.16130 113.65344 31536 ft 520 kts 329°
2026-05-07 06:28 -6.12992 113.63542 31784 ft 518 kts 329°
2026-05-07 06:28 -6.09881 113.61756 32122 ft 514 kts 329°
2026-05-07 06:29 -6.06773 113.59971 32227 ft 515 kts 329°
2026-05-07 06:29 -6.03655 113.58181 32356 ft 516 kts 329°
2026-05-07 06:29 -6.00548 113.56396 32609 ft 513 kts 329°
2026-05-07 06:29 -5.97454 113.54620 32805 ft 512 kts 329°
2026-05-07 06:30 -5.91247 113.51057 33033 ft 513 kts 329°
2026-05-07 06:30 -5.88162 113.49287 33318 ft 510 kts 329°
2026-05-07 06:30 -5.85080 113.47519 33444 ft 510 kts 329°
2026-05-07 06:31 -5.78909 113.43979 33729 ft 509 kts 329°
2026-05-07 06:31 -5.72745 113.40444 33825 ft 512 kts 329°
2026-05-07 06:32 -5.66535 113.36883 33823 ft 515 kts 329°
2026-05-07 06:32 -5.60312 113.33316 33827 ft 515 kts 329°
2026-05-07 06:33 -5.54094 113.29753 33823 ft 513 kts 329°
2026-05-07 06:33 -5.48938 113.26800 33824 ft 514 kts 329°
2026-05-07 06:34 -5.42738 113.23249 33823 ft 513 kts 329°
2026-05-07 06:34 -5.36538 113.19698 33823 ft 513 kts 330°
2026-05-07 06:35 -5.30340 113.16150 33821 ft 513 kts 329°
2026-05-07 06:35 -5.24137 113.12600 33822 ft 513 kts 330°
2026-05-07 06:36 -5.17919 113.09041 33820 ft 516 kts 329°
2026-05-07 06:36 -5.11675 113.05469 33821 ft 516 kts 330°
2026-05-07 06:37 -5.05439 113.01902 33820 ft 516 kts 329°
2026-05-07 06:37 -4.99201 112.98335 33820 ft 515 kts 330°
2026-05-07 06:38 -4.92965 112.94769 33824 ft 517 kts 330°
2026-05-07 06:38 -4.86725 112.91202 33822 ft 517 kts 330°
2026-05-07 06:39 -4.80463 112.87624 33822 ft 519 kts 330°
2026-05-07 06:39 -4.74201 112.84047 33818 ft 518 kts 330°
2026-05-07 06:40 -4.67977 112.80491 33818 ft 519 kts 330°
2026-05-07 06:40 -4.61722 112.76919 33818 ft 517 kts 330°
2026-05-07 06:41 -4.55470 112.73349 33820 ft 516 kts 331°
2026-05-07 06:41 -4.49241 112.69792 33820 ft 515 kts 331°
2026-05-07 06:42 -4.43010 112.66236 33821 ft 515 kts 330°
2026-05-07 06:42 -4.36783 112.62683 33820 ft 515 kts 331°
2026-05-07 06:43 -4.30554 112.59129 33818 ft 515 kts 330°
2026-05-07 06:43 -4.24330 112.55578 33818 ft 515 kts 331°
2026-05-07 06:44 -4.18103 112.52027 33818 ft 514 kts 332°
2026-05-07 06:44 -4.11888 112.48483 33818 ft 515 kts 332°
2026-05-07 06:45 -4.05665 112.44936 33814 ft 514 kts 332°
2026-05-07 06:45 -3.99433 112.41384 33816 ft 516 kts 331°
2026-05-07 06:46 -3.93191 112.37826 33815 ft 516 kts 332°
2026-05-07 06:46 -3.86950 112.34270 33816 ft 516 kts 332°
2026-05-07 06:47 -3.80711 112.30715 33815 ft 516 kts 331°
2026-05-07 06:47 -3.74471 112.27160 33815 ft 516 kts 332°
2026-05-07 06:48 -3.68276 112.23632 33815 ft 516 kts 331°
2026-05-07 06:48 -3.62037 112.20079 33810 ft 516 kts 332°
2026-05-07 06:49 -3.55805 112.16531 33813 ft 515 kts 332°
2026-05-07 06:49 -3.49567 112.12980 33804 ft 516 kts 332°
2026-05-07 06:50 -3.43319 112.09424 33807 ft 516 kts 332°
2026-05-07 06:50 -3.37076 112.05871 33807 ft 516 kts 332°
2026-05-07 06:51 -3.30834 112.02319 33805 ft 516 kts 332°
2026-05-07 06:51 -3.24593 111.98769 33805 ft 516 kts 332°
2026-05-07 06:52 -3.18354 111.95220 33799 ft 516 kts 332°
2026-05-07 06:52 -3.12108 111.91667 33805 ft 516 kts 332°
2026-05-07 06:53 -3.05868 111.88119 33800 ft 516 kts 332°
2026-05-07 06:53 -2.99624 111.84569 33802 ft 516 kts 332°
2026-05-07 06:54 -2.93381 111.81019 33803 ft 516 kts 332°
2026-05-07 06:54 -2.87134 111.77469 33800 ft 516 kts 331°
2026-05-07 06:55 -2.80885 111.73917 33800 ft 517 kts 332°
2026-05-07 06:55 -2.74637 111.70364 33796 ft 516 kts 331°
2026-05-07 06:56 -2.68858 111.66093 33801 ft 518 kts 320°
2026-05-07 06:56 -2.63434 111.61338 33798 ft 519 kts 319°
2026-05-07 06:57 -2.58071 111.56511 33802 ft 519 kts 319°
2026-05-07 06:57 -2.52705 111.51687 33802 ft 519 kts 319°
2026-05-07 06:58 -2.47365 111.46908 33797 ft 519 kts 319°
2026-05-07 06:58 -2.41960 111.42083 33799 ft 522 kts 319°
2026-05-07 06:59 -2.36544 111.37248 33799 ft 522 kts 319°
2026-05-07 06:59 -2.31121 111.32407 33799 ft 522 kts 319°
2026-05-07 07:00 -2.25699 111.27565 33801 ft 523 kts 319°
2026-05-07 07:00 -2.20279 111.22727 33801 ft 523 kts 319°
2026-05-07 07:01 -2.14854 111.17885 33799 ft 522 kts 319°
2026-05-07 07:01 -2.09448 111.13060 33797 ft 518 kts 319°
2026-05-07 07:02 -2.04109 111.08298 33799 ft 511 kts 319°
2026-05-07 07:02 -1.98868 111.03608 33799 ft 511 kts 319°
2026-05-07 07:03 -1.93581 110.98862 33800 ft 511 kts 319°
2026-05-07 07:03 -1.88294 110.94120 33798 ft 511 kts 319°
2026-05-07 07:04 -1.83006 110.89383 33800 ft 511 kts 319°
2026-05-07 07:04 -1.77713 110.84642 33792 ft 511 kts 319°
2026-05-07 07:05 -1.72397 110.79882 33794 ft 516 kts 319°
2026-05-07 07:05 -1.67047 110.75091 33797 ft 516 kts 319°
2026-05-07 07:06 -1.61709 110.70311 33792 ft 516 kts 319°
2026-05-07 07:06 -1.56361 110.65522 33794 ft 516 kts 319°
2026-05-07 07:07 -1.51016 110.60736 33790 ft 516 kts 319°
2026-05-07 07:07 -1.45711 110.55986 33788 ft 516 kts 319°
2026-05-07 07:08 -1.40365 110.51202 33791 ft 515 kts 319°
2026-05-07 07:08 -1.35028 110.46424 33788 ft 515 kts 319°
2026-05-07 07:09 -1.29702 110.41657 33788 ft 514 kts 319°
2026-05-07 07:09 -1.24324 110.36949 33788 ft 514 kts 320°
2026-05-07 07:10 -1.18875 110.32328 33790 ft 514 kts 320°
2026-05-07 07:10 -1.13430 110.27708 33787 ft 514 kts 320°
2026-05-07 07:11 -1.07993 110.23069 33791 ft 514 kts 320°
2026-05-07 07:11 -1.02559 110.18421 33790 ft 514 kts 320°
2026-05-07 07:12 -0.97129 110.13776 33788 ft 514 kts 320°
2026-05-07 07:12 -0.91691 110.09125 33788 ft 515 kts 320°
2026-05-07 07:13 -0.86241 110.04465 33790 ft 516 kts 320°
2026-05-07 07:13 -0.80787 109.99801 33788 ft 516 kts 320°
2026-05-07 07:14 -0.75334 109.95139 33788 ft 516 kts 320°
2026-05-07 07:14 -0.69885 109.90480 33787 ft 515 kts 320°
2026-05-07 07:15 -0.64449 109.85833 33785 ft 514 kts 320°
2026-05-07 07:15 -0.59060 109.81225 33785 ft 513 kts 320°
2026-05-07 07:16 -0.53637 109.76589 33781 ft 513 kts 320°
2026-05-07 07:16 -0.48220 109.71958 33782 ft 512 kts 320°
2026-05-07 07:17 -0.42806 109.67330 33782 ft 512 kts 320°
2026-05-07 07:17 -0.37392 109.62701 33783 ft 512 kts 320°
2026-05-07 07:18 -0.31971 109.58068 33779 ft 513 kts 320°
2026-05-07 07:18 -0.26541 109.53426 33775 ft 514 kts 320°
2026-05-07 07:19 -0.21107 109.48781 33775 ft 514 kts 320°
2026-05-07 07:19 -0.15669 109.44133 33774 ft 515 kts 320°
2026-05-07 07:20 -0.10218 109.39473 33774 ft 516 kts 320°
2026-05-07 07:20 -0.04794 109.34772 33775 ft 516 kts 318°
2026-05-07 07:21 0.00455 109.29876 33783 ft 517 kts 317°
2026-05-07 07:21 0.05688 109.24940 33782 ft 518 kts 317°
2026-05-07 07:22 0.10948 109.20031 33782 ft 518 kts 317°
2026-05-07 07:22 0.16228 109.15136 33782 ft 518 kts 317°
2026-05-07 07:23 0.20625 109.11067 33780 ft 518 kts 317°
2026-05-07 07:23 0.25902 109.06182 33782 ft 517 kts 317°
2026-05-07 07:24 0.31180 109.01294 33782 ft 517 kts 317°
2026-05-07 07:24 0.36457 108.96407 33786 ft 517 kts 317°
2026-05-07 07:25 0.44368 108.89078 33788 ft 517 kts 317°
2026-05-07 07:26 0.49642 108.84193 33790 ft 517 kts 317°
2026-05-07 07:26 0.54918 108.79312 33788 ft 517 kts 318°
2026-05-07 07:27 0.60190 108.74427 33788 ft 517 kts 317°
2026-05-07 07:27 0.65451 108.69543 33788 ft 516 kts 317°
2026-05-07 07:28 0.70715 108.64659 33788 ft 516 kts 317°
2026-05-07 07:28 0.75981 108.59777 33788 ft 517 kts 317°
2026-05-07 07:29 0.81252 108.54890 33785 ft 517 kts 317°
2026-05-07 07:29 0.86519 108.50007 33788 ft 517 kts 317°
2026-05-07 07:30 0.91798 108.45112 33788 ft 517 kts 317°
2026-05-07 07:30 0.97071 108.40223 33789 ft 517 kts 317°
2026-05-07 07:31 1.02301 108.35373 33788 ft 516 kts 317°
2026-05-07 07:31 1.07601 108.30458 33788 ft 516 kts 317°
2026-05-07 07:32 1.12829 108.25609 33788 ft 517 kts 317°
2026-05-07 07:32 1.18101 108.20720 33788 ft 517 kts 317°
2026-05-07 07:33 1.23370 108.15833 33785 ft 517 kts 317°
2026-05-07 07:33 1.28636 108.10949 33788 ft 517 kts 317°
2026-05-07 07:34 1.33906 108.06060 33790 ft 517 kts 317°
2026-05-07 07:34 1.39172 108.01176 33788 ft 517 kts 317°
2026-05-07 07:35 1.44437 107.96288 33787 ft 517 kts 317°
2026-05-07 07:35 1.49691 107.91371 33788 ft 519 kts 317°
2026-05-07 07:36 1.54962 107.86432 33790 ft 520 kts 318°
2026-05-07 07:36 1.60239 107.81492 33790 ft 520 kts 318°
2026-05-07 07:37 1.65519 107.76554 33786 ft 520 kts 318°
2026-05-07 07:37 1.70799 107.71616 33788 ft 520 kts 318°
2026-05-07 07:38 1.76086 107.66671 33790 ft 521 kts 318°
2026-05-07 07:38 1.81373 107.61725 33790 ft 521 kts 318°
2026-05-07 07:39 1.86661 107.56778 33788 ft 522 kts 318°
2026-05-07 07:39 1.91965 107.51816 33788 ft 522 kts 318°
2026-05-07 07:40 1.97261 107.46861 33790 ft 522 kts 318°
2026-05-07 07:40 2.02565 107.41905 33790 ft 522 kts 318°
2026-05-07 07:41 2.07871 107.36960 33787 ft 521 kts 318°
2026-05-07 07:41 2.13166 107.32023 33788 ft 520 kts 318°
2026-05-07 07:42 2.18456 107.27092 33788 ft 520 kts 318°
2026-05-07 07:42 2.23714 107.22189 33788 ft 521 kts 318°
2026-05-07 07:43 2.29021 107.17241 33790 ft 522 kts 318°
2026-05-07 07:43 2.34173 107.12135 33791 ft 523 kts 309°
2026-05-07 07:44 2.37826 107.05890 33789 ft 523 kts 290°
2026-05-07 07:44 2.39983 106.98953 33788 ft 523 kts 285°
2026-05-07 07:45 2.41876 106.91930 33788 ft 523 kts 284°
2026-05-07 07:45 2.43754 106.84916 33788 ft 523 kts 285°
2026-05-07 07:46 2.45669 106.77894 33788 ft 523 kts 285°
2026-05-07 07:46 2.47599 106.70886 33788 ft 523 kts 285°
2026-05-07 07:47 2.49529 106.63889 33787 ft 521 kts 285°
2026-05-07 07:47 2.51453 106.56907 33788 ft 521 kts 285°
2026-05-07 07:48 2.53374 106.49923 33788 ft 521 kts 285°
2026-05-07 07:48 2.55283 106.42942 33788 ft 521 kts 285°
2026-05-07 07:49 2.57201 106.35960 33788 ft 521 kts 285°
2026-05-07 07:49 2.59138 106.28967 33788 ft 522 kts 285°
2026-05-07 07:50 2.61078 106.21963 33788 ft 522 kts 285°
2026-05-07 07:50 2.63016 106.14965 33787 ft 522 kts 285°
2026-05-07 07:51 2.64953 106.07964 33785 ft 522 kts 285°
2026-05-07 07:51 2.66890 106.00962 33785 ft 522 kts 285°
2026-05-07 07:52 2.68824 105.93967 33788 ft 521 kts 285°
2026-05-07 07:52 2.70741 105.87034 33784 ft 521 kts 285°
2026-05-07 07:53 2.72671 105.80052 33786 ft 521 kts 285°
2026-05-07 07:53 2.74599 105.73074 33785 ft 521 kts 285°
2026-05-07 07:54 2.76530 105.66090 33786 ft 521 kts 285°
2026-05-07 07:54 2.78457 105.59112 33785 ft 520 kts 285°
2026-05-07 07:55 2.80383 105.52141 33788 ft 520 kts 285°
2026-05-07 07:55 2.82308 105.45172 33790 ft 520 kts 285°
2026-05-07 07:56 2.84233 105.38202 33788 ft 520 kts 285°
2026-05-07 07:56 2.86157 105.31232 33787 ft 520 kts 285°
2026-05-07 07:57 2.88083 105.24254 33788 ft 522 kts 285°
2026-05-07 07:57 2.90030 105.17227 33788 ft 525 kts 285°
2026-05-07 07:58 2.91978 105.10185 33787 ft 525 kts 285°
2026-05-07 07:58 2.93920 105.03140 33788 ft 525 kts 285°
2026-05-07 07:59 2.95864 104.96092 33788 ft 525 kts 285°
2026-05-07 07:59 2.97803 104.89073 33787 ft 523 kts 284°
2026-05-07 08:00 2.99742 104.82051 33789 ft 523 kts 284°
2026-05-07 08:00 3.01679 104.75028 33791 ft 524 kts 284°
2026-05-07 08:01 3.03617 104.68005 33788 ft 524 kts 284°
2026-05-07 08:01 3.05558 104.60980 33787 ft 524 kts 284°
2026-05-07 08:02 3.07489 104.53959 33788 ft 524 kts 284°
2026-05-07 08:02 3.09420 104.46934 33788 ft 524 kts 284°
2026-05-07 08:03 3.11352 104.39910 33788 ft 524 kts 284°
2026-05-07 08:03 3.13285 104.32886 33788 ft 524 kts 284°
2026-05-07 08:04 3.15209 104.25861 33787 ft 524 kts 284°
2026-05-07 08:04 3.17117 104.18828 33787 ft 523 kts 284°
2026-05-07 08:05 3.19042 104.11820 33789 ft 522 kts 284°
2026-05-07 08:05 3.21027 104.04834 33788 ft 522 kts 285°
2026-05-07 08:06 3.23020 103.97850 33787 ft 522 kts 285°
2026-05-07 08:06 3.25003 103.90866 33788 ft 522 kts 285°
2026-05-07 08:07 3.26982 103.83879 33785 ft 521 kts 285°
2026-05-07 08:07 3.28932 103.76985 33782 ft 516 kts 285°
2026-05-07 08:08 3.30886 103.70081 33782 ft 515 kts 285°
2026-05-07 08:08 3.32836 103.63185 33780 ft 515 kts 285°
2026-05-07 08:09 3.34786 103.56288 33780 ft 514 kts 285°
2026-05-07 08:09 3.36956 103.49477 33776 ft 514 kts 294°
2026-05-07 08:10 3.40783 103.43501 33776 ft 511 kts 313°
2026-05-07 08:10 3.45372 103.39754 33776 ft 509 kts 330°
2026-05-07 08:11 3.51764 103.36821 33772 ft 509 kts 338°
2026-05-07 08:11 3.58375 103.34237 33773 ft 510 kts 339°
2026-05-07 08:12 3.64992 103.31677 33772 ft 510 kts 339°
2026-05-07 08:12 3.71602 103.29076 33779 ft 510 kts 339°
2026-05-07 08:13 3.78197 103.26457 33773 ft 509 kts 339°
2026-05-07 08:13 3.84787 103.23834 33774 ft 509 kts 339°
2026-05-07 08:14 3.91372 103.21214 33774 ft 509 kts 339°
2026-05-07 08:14 3.97955 103.18596 33774 ft 509 kts 339°
2026-05-07 08:15 4.04545 103.15976 33775 ft 509 kts 339°
2026-05-07 08:15 4.11132 103.13355 33774 ft 509 kts 339°
2026-05-07 08:16 4.17717 103.10735 33776 ft 510 kts 339°
2026-05-07 08:16 4.24313 103.08110 33776 ft 510 kts 339°
2026-05-07 08:17 4.30905 103.05486 33785 ft 510 kts 339°
2026-05-07 08:17 4.37497 103.02862 33785 ft 510 kts 339°
2026-05-07 08:18 4.44088 103.00238 33784 ft 510 kts 339°
2026-05-07 08:18 4.50684 102.97611 33788 ft 510 kts 339°
2026-05-07 08:19 4.57282 102.94983 33788 ft 510 kts 339°
2026-05-07 08:19 4.63878 102.92355 33785 ft 510 kts 339°
2026-05-07 08:20 4.70475 102.89726 33790 ft 510 kts 339°
2026-05-07 08:20 4.77067 102.87098 33782 ft 510 kts 339°
2026-05-07 08:21 4.83669 102.84467 33778 ft 510 kts 339°
2026-05-07 08:21 4.90271 102.81839 33784 ft 511 kts 339°
2026-05-07 08:22 4.96880 102.79213 33782 ft 511 kts 339°
2026-05-07 08:22 5.03494 102.76583 33786 ft 511 kts 339°
2026-05-07 08:23 5.10099 102.73956 33780 ft 511 kts 339°
2026-05-07 08:23 5.16705 102.71327 33779 ft 511 kts 339°
2026-05-07 08:24 5.23315 102.68699 33776 ft 512 kts 339°
2026-05-07 08:24 5.29888 102.66047 33776 ft 512 kts 339°
2026-05-07 08:25 5.36499 102.63367 33777 ft 513 kts 339°
2026-05-07 08:25 5.43130 102.60716 33780 ft 513 kts 339°
2026-05-07 08:26 5.53076 102.56745 33781 ft 513 kts 339°
2026-05-07 08:26 5.59711 102.54103 33779 ft 513 kts 340°
2026-05-07 08:27 5.66354 102.51443 33778 ft 515 kts 340°
2026-05-07 08:27 5.73005 102.48778 33780 ft 514 kts 339°
2026-05-07 08:28 5.79653 102.46116 33777 ft 515 kts 340°
2026-05-07 08:28 5.86309 102.43453 33780 ft 515 kts 339°
2026-05-07 08:29 5.92960 102.40791 33776 ft 514 kts 340°
2026-05-07 08:29 5.99617 102.38126 33776 ft 516 kts 339°
2026-05-07 08:30 6.06287 102.35455 33775 ft 516 kts 339°
2026-05-07 08:30 6.12649 102.32111 33775 ft 518 kts 323°
2026-05-07 08:31 6.17637 102.26942 33773 ft 519 kts 303°
2026-05-07 08:31 6.20821 102.20451 33774 ft 518 kts 292°
2026-05-07 08:32 6.23476 102.13706 33782 ft 520 kts 291°
2026-05-07 08:32 6.26083 102.06937 33785 ft 518 kts 291°
2026-05-07 08:33 6.28745 102.00216 33788 ft 518 kts 291°
2026-05-07 08:33 6.31455 101.93495 33788 ft 519 kts 291°
2026-05-07 08:34 6.34168 101.86777 33780 ft 518 kts 291°
2026-05-07 08:34 6.36869 101.80070 33777 ft 517 kts 291°
2026-05-07 08:35 6.39566 101.73360 33776 ft 518 kts 291°
2026-05-07 08:35 6.42250 101.66678 33780 ft 518 kts 291°
2026-05-07 08:36 6.44964 101.59922 33775 ft 517 kts 291°
2026-05-07 08:36 6.47637 101.53263 33777 ft 517 kts 291°
2026-05-07 08:37 6.50333 101.46547 33783 ft 519 kts 291°
2026-05-07 08:37 6.53027 101.39829 33785 ft 518 kts 291°
2026-05-07 08:38 6.55715 101.33127 33784 ft 517 kts 291°
2026-05-07 08:38 6.58408 101.26408 33781 ft 519 kts 291°
2026-05-07 08:39 6.61109 101.19666 33783 ft 519 kts 291°
2026-05-07 08:39 6.63805 101.12933 33783 ft 518 kts 291°
2026-05-07 08:40 6.66499 101.06205 33781 ft 519 kts 291°
2026-05-07 08:40 6.69199 100.99454 33782 ft 520 kts 291°
2026-05-07 08:41 6.71896 100.92711 33785 ft 518 kts 291°
2026-05-07 08:41 6.74583 100.85992 33780 ft 517 kts 291°
2026-05-07 08:42 6.77267 100.79274 33779 ft 518 kts 291°
2026-05-07 08:42 6.79934 100.72596 33779 ft 518 kts 291°
2026-05-07 08:43 6.82630 100.65843 33775 ft 517 kts 291°
2026-05-07 08:43 6.85291 100.59174 33776 ft 518 kts 291°
2026-05-07 08:44 6.87973 100.52450 33772 ft 518 kts 291°
2026-05-07 08:44 6.90656 100.45721 33774 ft 517 kts 291°
2026-05-07 08:45 6.93564 100.39097 33777 ft 519 kts 300°
2026-05-07 08:45 6.97656 100.33119 33773 ft 520 kts 306°
2026-05-07 08:46 7.02031 100.27310 33774 ft 521 kts 307°
2026-05-07 08:46 7.06452 100.21519 33778 ft 521 kts 307°
2026-05-07 08:47 7.10837 100.15743 33777 ft 518 kts 307°
2026-05-07 08:47 7.15191 100.09984 33790 ft 517 kts 307°
2026-05-07 08:48 7.19541 100.04217 33793 ft 518 kts 307°
2026-05-07 08:48 7.23897 99.98441 33787 ft 518 kts 307°
2026-05-07 08:49 7.28241 99.92683 33787 ft 515 kts 307°
2026-05-07 08:49 7.32577 99.86933 33790 ft 516 kts 307°
2026-05-07 08:50 7.36922 99.81166 33798 ft 516 kts 308°
2026-05-07 08:50 7.41258 99.75410 33798 ft 516 kts 308°
2026-05-07 08:51 7.45599 99.69646 33802 ft 516 kts 308°
2026-05-07 08:51 7.49870 99.63889 33802 ft 516 kts 303°
2026-05-07 08:52 7.53262 99.57524 33800 ft 516 kts 296°
2026-05-07 08:52 7.56318 99.50963 33800 ft 517 kts 295°